Location: Unspecified
(0.0000°N, 0.0000°E)
Time: 08:10:07
(UTC+00:00)

Hubble Space Telescope - Pass Details

Date: 23 July 2021
Orbit: 535 x 539 km, 28.5° (Epoch: 31 July)

Event Time Altitude Azimuth Distance (km) Brightness Sun altitude
Exits shadow 05:32:53 - 269° (W) 1,899 3.0 -7.9°
Reaches altitude 10° 05:33:14 10° 267° (W) 1,778 2.8 -7.8°
Maximum altitude 05:36:43 26° 209° (SSW) 1,075 1.9 -7.0°
Drops below altitude 10° 05:40:11 10° 152° (SSE) 1,784 3.5 -6.2°
Sets 05:42:43 0° 139° (SE) 2,676 4.6 -5.6°
